Weather Roundup
Issued by NWS Chicago, IL

Home | Current Version | Previous Version | Text Only | Print | Product List | Glossary Off
Versions: 1 2 3 4 5 6 7 8 9 10 11 12 13 14 15 16 17 18 19 20 21 22 23 24 25 26 27 28 29 30 31 32 33 34 35 36 37 38 39 40 41 42 43 44 45 46 47 48 49 50

700
NZUS59 KLOT 110703
HRRLOT

CHICAGO AREA WEATHER ROUNDUP
NATIONAL WEATHER SERVICE CHICAGO/ROMEOVILLE IL
100 AM CST THU FEB 11 2016

NOTE: "FAIR" INDICATES FEW OR NO CLOUDS BELOW 12,000 FEET WITH NO
SIGNIFICANT WEATHER AND/OR OBSTRUCTIONS TO VISIBILITY.

* THESE STATIONS ARE NOT UNDER NWS QUALITY CONTROL. THEY ALSO MAY NOT
  REPORT WEATHER SUCH AS PRECIPITATION OR FOG.

ILZ005-006-012>014-019>023-110800-
NORTHEAST ILLINOIS

CITY           SKY/WX    TMP DP  RH WIND       PRES   REMARKS
OHARE          CLOUDY    12   0  58 NW10      30.17R WCI  -1
MIDWAY         CLOUDY    13   0  56 NW9       30.18R WCI   1
AURORA         PTCLDY    10   4  76 NW6       30.19R WCI   0
LANSING*       PTCLDY    13   1  59 NW7       30.17R WCI   2
WAUKEGAN       CLEAR      8  -1  66 NW6       30.16S WCI  -2
DUPAGE AIRPORT PTCLDY    11   1  64 NW8       30.17R WCI  -1
WHEELING       CLOUDY    10   0  63 NW9       30.19R WCI  -3
MORRIS*        PTCLDY    10   3  74 CALM      30.16S
$$

WIZ051-052-058>065-066-070>072-110800-
SOUTHEAST WISCONSIN

CITY           SKY/WX    TMP DP  RH WIND       PRES   REMARKS
MILWAUKEE      PTCLDY     8  -3  61 NW9       30.18R WCI  -5
KENOSHA*       CLEAR      8  -2  63 NW8       30.16S WCI  -4
RACINE*        CLEAR      8  -3  61 NW6       30.19R WCI  -2
BURLINGTON     CLEAR      6  -3  67 NW7       30.17S WCI  -6
$$

INZ001>003-010>013-019-020-110800-
NORTHWEST INDIANA

CITY           SKY/WX    TMP DP  RH WIND       PRES   REMARKS
GARY*          CLOUDY    16   3  57 NW9       30.17S WCI   4
MICHIGAN CITY* NOT AVBL
RENSSELAER*    NOT AVBL
VALPARAISO     CLOUDY    12   4  70 W8        30.14S WCI   0
$$

LMZ740>746-110800-
SOUTHERN LAKE MICHIGAN

STATION/POSITION TIME  SKY/WX   TEMP WIND        PRES    VSBY
                                AIR  DIR/SP/G
                 (UTC)          (F)  (DEG/KT/KT) (MB)    (MI)
HARRISON CRIB    0600            14  320/ 14/ 15   N/A
BURNHAM HARBOR   0700            14  310/  4/ 12   N/A
CALUMET HARBOR   0600                290/  9/ 13   N/A
BURNS HARBOR     0600            17  320/ 12/ 18 1021.3S
MICHIGAN CITY    0600            17  290/ 14/ 17   N/A
$$

ABBREVIATIONS USED IN REMARKS
   TC - TEMPERATURE IN CELSIUS
  WCI - WIND CHILL INDEX
   HX - HEAT INDEX
  VSB - VISIBILITY
$$




USA.gov is the U.S. government's official web portal to all federal, state and local government web resources and services.